カタログに戻る

ONEWEB-0371

運用中通信PO
NORAD 49297·PAYLOAD·🇬🇧 United Kingdom

打ち上げ Oct 14, 2021 から Vostochny Cosmodrome

Loading…

次のパス (今後24時間)

TLE

最新Source: CelesTrak SupGP

元期: Sep 14, 2026, 21:19 UTC

1 49297C 21090U   26257.88868472  .00000948  00000+0  23703-2 0  2570
2 49297  87.9107 287.1000 0002196  95.3174 300.6413 13.19723328    17

AllMySatでONEWEB-0371をリアルタイム追跡

Download on the App Store